| time (UTC) | temp F | wind direction | speed MPH | gust MPH | rain 1hr in | rain 24hr in | rain mn in | humidity % | barometer mb |
| 20260906114528 | 70 | 30 | 0.0 | 2.0 | 0.00 | 0.00 | 0.00 | 96 | 1018.8 |
| 20260906113024 | 70 | 30 | 0.0 | 3.0 | 0.00 | 0.00 | 0.00 | 96 | 1018.7 |
| 20260906111520 | 70 | 30 | 0.0 | 3.0 | 0.00 | 0.00 | 0.00 | 96 | 1018.4 |
| 20260906110019 | 70 | 30 | 1.0 | 3.0 | 0.00 | 0.00 | 0.00 | 96 | 1018.5 |
| 20260906104517 | 70 | 30 | 0.0 | 3.0 | 0.00 | 0.00 | 0.00 | 95 | 1018.1 |
| 20260906103016 | 70 | 30 | 0.0 | 2.0 | 0.00 | 0.00 | 0.00 | 95 | 1018.0 |
| 20260906101515 | 70 | 30 | 0.0 | 1.0 | 0.00 | 0.00 | 0.00 | 95 | 1018.0 |
| 20260906100013 | 71 | 30 | 0.0 | 2.0 | 0.00 | 0.00 | 0.00 | 95 | 1017.9 |
| 20260906094511 | 71 | 30 | 0.0 | 1.0 | 0.00 | 0.00 | 0.00 | 94 | 1017.8 |
| 20260906093032 | 71 | 30 | 0.0 | 2.0 | 0.00 | 0.00 | 0.00 | 94 | 1017.8 |
| 20260906091509 | 71 | 30 | 0.0 | 3.0 | 0.00 | 0.00 | 0.00 | 94 | 1017.7 |
| 20260906090108 | 72 | 30 | 0.0 | 3.0 | 0.00 | 0.00 | 0.00 | 94 | 1017.6 |
| 20260906084545 | 72 | 29 | 1.0 | 4.0 | 0.00 | 0.00 | 0.00 | 93 | 1017.6 |
| 20260906083042 | 72 | 51 | 0.0 | 3.0 | 0.00 | 0.00 | 0.00 | 93 | 1017.6 |
| 20260906081537 | 73 | 51 | 0.0 | 4.0 | 0.00 | 0.00 | 0.00 | 93 | 1017.5 |
| 20260906080037 | 73 | 52 | 1.0 | 4.0 | 0.00 | 0.00 | 0.00 | 93 | 1017.8 |
| 20260906074546 | 73 | 49 | 0.0 | 4.0 | 0.00 | 0.00 | 0.00 | 93 | 1017.7 |
| 20260906073033 | 73 | 49 | 1.0 | 4.0 | 0.00 | 0.00 | 0.00 | 92 | 1017.7 |
| 20260906071532 | 73 | 49 | 0.0 | 5.0 | 0.00 | 0.00 | 0.00 | 92 | 1017.8 |
| 20260906070032 | 73 | 30 | 0.0 | 5.0 | 0.00 | 0.00 | 0.00 | 92 | 1017.9 |
| 20260906064534 | 73 | 49 | 0.0 | 4.0 | 0.00 | 0.00 | 0.00 | 92 | 1017.7 |
| 20260906063030 | 74 | 50 | 0.0 | 5.0 | 0.00 | 0.00 | 0.00 | 92 | 1017.7 |
| 20260906061533 | 74 | 49 | 2.0 | 6.0 | 0.00 | 0.00 | 0.00 | 92 | 1017.8 |
| 20260906060028 | 74 | 49 | 1.0 | 6.0 | 0.00 | 0.00 | 0.00 | 91 | 1017.7 |
| 20260906054527 | 74 | 51 | 1.0 | 6.0 | 0.00 | 0.00 | 0.00 | 91 | 1017.6 |
| 20260906053025 | 74 | 59 | 1.0 | 7.0 | 0.00 | 0.00 | 0.00 | 91 | 1017.6 |
| 20260906051526 | 74 | 59 | 0.0 | 6.0 | 0.00 | 0.00 | 0.00 | 91 | 1017.6 |
| 20260906050023 | 74 | 13 | 1.0 | 9.0 | 0.00 | 0.00 | 0.00 | 91 | 1017.5 |
| 20260906044519 | 74 | 84 | 0.0 | 4.0 | 0.00 | 0.00 | 0.00 | 91 | 1017.3 |
| 20260906043018 | 74 | 45 | 1.0 | 11.0 | 0.00 | 0.00 | 0.00 | 91 | 1017.0 |
| 20260906041522 | 74 | 55 | 1.0 | 6.0 | 0.00 | 0.00 | 0.00 | 90 | 1016.7 |
| 20260906040015 | 74 | 109 | 0.0 | 11.0 | 0.00 | 0.00 | 0.00 | 90 | 1016.7 |
| 20260906034515 | 74 | 72 | 3.0 | 11.0 | 0.00 | 0.00 | 0.00 | 90 | 1016.6 |
| 20260906033012 | 74 | 66 | 0.0 | 7.0 | 0.00 | 0.00 | 0.00 | 89 | 1016.5 |
| 20260906031512 | 74 | 76 | 0.0 | 9.0 | 0.00 | 0.00 | 0.00 | 89 | 1016.6 |
| 20260906030011 | 74 | 49 | 2.0 | 11.0 | 0.00 | 0.00 | 0.00 | 89 | 1016.6 |
| 20260906024509 | 74 | 33 | 2.0 | 10.0 | 0.00 | 0.00 | 0.00 | 89 | 1016.6 |
| 20260906023008 | 74 | 51 | 2.0 | 9.0 | 0.00 | 0.00 | 0.00 | 89 | 1016.5 |
| 20260906021508 | 74 | 55 | 2.0 | 11.0 | 0.00 | 0.00 | 0.00 | 89 | 1016.5 |
| 20260906020006 | 74 | 50 | 4.0 | 10.0 | 0.00 | 0.00 | 0.00 | 90 | 1016.4 |
| 20260906014517 | 74 | 75 | 2.0 | 12.0 | 0.00 | 0.00 | 0.00 | 90 | 1016.7 |
| 20260906013004 | 74 | 100 | 5.0 | 12.0 | 0.00 | 0.00 | 0.00 | 90 | 1016.6 |
| 20260906011501 | 74 | 41 | 5.0 | 16.0 | 0.00 | 0.00 | 0.00 | 89 | 1016.6 |
| 20260906010129 | 74 | 34 | 3.0 | 15.0 | 0.00 | 0.00 | 0.00 | 89 | 1016.5 |
| 20260906004557 | 74 | 82 | 4.0 | 11.0 | 0.00 | 0.00 | 0.00 | 89 | 1016.2 |
| 20260906003053 | 74 | 41 | 6.0 | 17.0 | 0.00 | 0.00 | 0.00 | 89 | 1015.9 |
| 20260906001603 | 75 | 28 | 6.0 | 14.0 | 0.00 | 0.00 | 0.00 | 88 | 1015.8 |
| 20260906000048 | 76 | 43 | 7.0 | 16.0 | 0.00 | 0.00 | 0.00 | 88 | 1015.8 |
| 20260905234543 | 76 | 42 | 4.0 | 14.0 | 0.00 | 0.00 | 0.00 | 87 | 1015.7 |
| 20260905233040 | 77 | 78 | 8.0 | 16.0 | 0.00 | 0.00 | 0.00 | 85 | 1015.6 |
| 20260905231543 | 78 | 69 | 3.0 | 13.0 | 0.00 | 0.00 | 0.00 | 85 | 1015.3 |
| 20260905230039 | 79 | 77 | 7.0 | 16.0 | 0.00 | 0.00 | 0.00 | 83 | 1015.2 |
| 20260905224543 | 80 | 87 | 6.0 | 14.0 | 0.00 | 0.00 | 0.00 | 82 | 1015.1 |
| 20260905223040 | 81 | 355 | 3.0 | 12.0 | 0.00 | 0.00 | 0.00 | 81 | 1014.8 |
| 20260905221541 | 81 | 76 | 7.0 | 13.0 | 0.00 | 0.00 | 0.00 | 80 | 1014.8 |
| 20260905220035 | 81 | 63 | 5.0 | 12.0 | 0.00 | 0.00 | 0.00 | 79 | 1014.9 |
| 20260905214533 | 81 | 42 | 3.0 | 13.0 | 0.00 | 0.00 | 0.00 | 80 | 1014.8 |
| 20260905213035 | 81 | 76 | 3.0 | 11.0 | 0.00 | 0.00 | 0.00 | 81 | 1014.8 |
| 20260905211541 | 81 | 45 | 2.0 | 6.0 | 0.00 | 0.00 | 0.00 | 83 | 1014.8 |
| 20260905210035 | 81 | 84 | 2.0 | 9.0 | 0.00 | 0.00 | 0.00 | 84 | 1015.0 |
| 20260905204532 | 81 | 36 | 3.0 | 10.0 | 0.00 | 0.00 | 0.00 | 83 | 1015.1 |
| 20260905203042 | 81 | 32 | 2.0 | 11.0 | 0.00 | 0.00 | 0.00 | 83 | 1015.1 |
| 20260905201549 | 81 | 79 | 1.0 | 11.0 | 0.00 | 0.00 | 0.00 | 82 | 1015.0 |
| 20260905200030 | 82 | 67 | 3.0 | 9.0 | 0.00 | 0.00 | 0.00 | 82 | 1015.1 |
| 20260905194529 | 82 | 317 | 3.0 | 12.0 | 0.00 | 0.00 | 0.00 | 82 | 1015.0 |
| 20260905193033 | 82 | 105 | 4.0 | 12.0 | 0.00 | 0.00 | 0.00 | 81 | 1015.1 |
| 20260905191529 | 83 | 44 | 3.0 | 13.0 | 0.00 | 0.00 | 0.00 | 81 | 1015.2 |
| 20260905190027 | 83 | 38 | 2.0 | 10.0 | 0.00 | 0.00 | 0.00 | 81 | 1015.1 |
| 20260905184530 | 83 | 49 | 4.0 | 14.0 | 0.00 | 0.00 | 0.00 | 81 | 1015.1 |
| 20260905183029 | 83 | 31 | 4.0 | 14.0 | 0.00 | 0.00 | 0.00 | 80 | 1015.3 |
| 20260905181523 | 84 | 62 | 6.0 | 12.0 | 0.00 | 0.00 | 0.00 | 79 | 1015.1 |
| 20260905180023 | 85 | 43 | 2.0 | 13.0 | 0.00 | 0.00 | 0.00 | 80 | 1015.0 |
| 20260905174522 | 84 | 29 | 4.0 | 11.0 | 0.00 | 0.00 | 0.00 | 79 | 1015.0 |
| 20260905173021 | 84 | 53 | 6.0 | 12.0 | 0.00 | 0.00 | 0.00 | 79 | 1015.0 |
| 20260905171521 | 85 | 29 | 4.0 | 10.0 | 0.00 | 0.00 | 0.00 | 79 | 1015.0 |
| 20260905170020 | 85 | 51 | 4.0 | 11.0 | 0.00 | 0.00 | 0.00 | 79 | 1015.1 |
| 20260905164519 | 85 | 43 | 3.0 | 11.0 | 0.00 | 0.00 | 0.00 | 79 | 1015.2 |
| 20260905163019 | 85 | 30 | 3.0 | 7.0 | 0.00 | 0.00 | 0.00 | 80 | 1015.1 |
| 20260905161519 | 85 | 28 | 3.0 | 10.0 | 0.00 | 0.00 | 0.00 | 80 | 1015.2 |
| 20260905160016 | 85 | 51 | 4.0 | 9.0 | 0.00 | 0.00 | 0.00 | 80 | 1015.1 |
| 20260905154512 | 84 | 53 | 4.0 | 9.0 | 0.00 | 0.00 | 0.00 | 83 | 1015.1 |
| 20260905153043 | 83 | 138 | 2.0 | 11.0 | 0.00 | 0.00 | 0.00 | 84 | 1015.0 |
| 20260905151511 | 82 | 84 | 1.0 | 12.0 | 0.00 | 0.00 | 0.00 | 86 | 1014.8 |
| 20260905150016 | 81 | 77 | 3.0 | 11.0 | 0.00 | 0.00 | 0.00 | 86 | 1014.6 |
| 20260905144512 | 80 | 76 | 5.0 | 10.0 | 0.00 | 0.00 | 0.00 | 90 | 1014.7 |
| 20260905143004 | 79 | 35 | 2.0 | 12.0 | 0.00 | 0.00 | 0.00 | 92 | 1014.6 |
| 20260905141504 | 78 | 70 | 2.0 | 9.0 | 0.00 | 0.00 | 0.00 | 94 | 1014.5 |
| 20260905140003 | 77 | 41 | 3.0 | 9.0 | 0.00 | 0.00 | 0.00 | 94 | 1014.4 |
| 20260905134502 | 77 | 8 | 4.0 | 10.0 | 0.00 | 0.00 | 0.00 | 94 | 1014.4 |
| 20260905133000 | 77 | 35 | 2.0 | 11.0 | 0.00 | 0.00 | 0.00 | 94 | 1014.6 |
| 20260905131615 | 77 | 46 | 3.0 | 10.0 | 0.00 | 0.00 | 0.00 | 95 | 1014.6 |
| 20260905130057 | 77 | 52 | 1.0 | 5.0 | 0.00 | 0.00 | 0.00 | 95 | 1014.1 |
| 20260905124554 | 77 | 75 | 3.0 | 12.0 | 0.00 | 0.00 | 0.00 | 95 | 1014.0 |
| 20260905123052 | 77 | 72 | 2.0 | 6.0 | 0.00 | 0.00 | 0.00 | 95 | 1013.5 |
| 20260905121551 | 77 | 49 | 2.0 | 5.0 | 0.00 | 0.00 | 0.00 | 95 | 1013.6 |
| 20260905120047 | 78 | 30 | 1.0 | 6.0 | 0.00 | 0.00 | 0.00 | 95 | 1013.5 |